Bullhead City, AZ

6:21 AM MST on December 12, 2017 (GMT -0700)
Laughlin-Bullhead International

Weather History for KIFP - May, 2013

Change the Weather History Date:

Wednesday, May 1, 2013

  Actual Average Record
Temperature  
Mean Temperature 78 °F -  
Max Temperature 86 °F 86 °F 100 °F (2001)
Min Temperature 71 °F 65 °F 54 °F (1988)
Cooling Degree Days 14    
Growing Degree Days 28 (Base 50)    
Moisture  
Dew Point 12 °F    
Average Humidity 9    
Maximum Humidity 19    
Minimum Humidity 4    
Precipitation  
Precipitation 0.00 in - - ()
Sea Level Pressure  
Sea Level Pressure 29.94 in    
Wind  
Wind Speed 21 mph (North)    
Max Wind Speed 37 mph    
Max Gust Speed 50 mph    
Visibility 10 miles    
Events      
Averages and records for this station are not official NWS values.
T = Trace of Precipitation, MM = Missing Value Source: NWS Daily Summary

Daily Weather History Graph

Daily Weather History Graph

Search for Another Location

Airport or City:

Trip Planner

Search our weather history database for the weather conditions in past years. The results will help you decide how hot, cold, wet, or windy it might be!

Date:

Astronomy

May. 01, 2013 Rise Set
Actual Time 5:46 AM MST 7:24 PM MST
Civil Twilight 5:19 AM MST 7:51 PM MST
Nautical Twilight 4:47 AM MST 8:24 PM MST
Astronomical Twilight 4:12 AM MST 8:58 PM MST
Moon 12:36 AM MST (5/1) 11:29 AM MST (5/1)
Length of Visible Light 14h 31m
Length of Day
13h 37m
Waning Gibbous, 58% of the Moon is Illuminated
May 1
Waning Gibbous
May 2
Last Quarter
May 9
New
May 17
First Quarter
May 24
Full

Hourly Weather History & Observations

Time (MST) Temp. Dew Point Humidity Pressure Visibility Wind Dir Wind Speed Gust Speed Precip Events Conditions
12:15 AM 86.0 °F 26.6 °F 12% 29.66 in 10.0 mi SSE 23.0 mph - N/A   Clear
12:35 AM 86.0 °F 26.6 °F 12% 29.67 in 10.0 mi SSE 17.3 mph - N/A   Clear
12:55 AM 84.2 °F 26.6 °F 12% 29.67 in 10.0 mi SSE 15.0 mph - N/A   Clear
1:15 AM 82.4 °F 28.4 °F 14% 29.69 in 10.0 mi SSW 6.9 mph - N/A   Clear
1:35 AM 80.6 °F 28.4 °F 15% 29.70 in 10.0 mi West 4.6 mph - N/A   Clear
1:55 AM 80.6 °F 28.4 °F 15% 29.71 in 10.0 mi South 5.8 mph - N/A   Clear
2:15 AM 77.0 °F 28.4 °F 17% 29.71 in 10.0 mi SSE 8.1 mph - N/A   Clear
2:35 AM 77.0 °F 28.4 °F 17% 29.72 in 10.0 mi NNW 4.6 mph - N/A   Clear
2:55 AM 77.0 °F 28.4 °F 17% 29.74 in 10.0 mi North 3.5 mph - N/A   Clear
3:15 AM 75.2 °F 28.4 °F 18% 29.74 in 7.0 mi ENE 3.5 mph - N/A   Clear
3:35 AM 73.4 °F 28.4 °F 19% 29.76 in 7.0 mi NE 9.2 mph - N/A   Clear
3:55 AM 78.8 °F 26.6 °F 15% 29.77 in 10.0 mi NNE 19.6 mph - N/A   Clear
4:15 AM 78.8 °F 15.8 °F 9% 29.79 in 10.0 mi North 15.0 mph - N/A   Clear
4:35 AM 78.8 °F 14.0 °F 9% 29.80 in 10.0 mi North 23.0 mph 29.9 mph N/A   Clear
4:55 AM 77.0 °F 12.2 °F 9% 29.82 in 10.0 mi North 23.0 mph 34.5 mph N/A   Clear
5:15 AM 77.0 °F 10.4 °F 8% 29.83 in 10.0 mi North 19.6 mph 33.4 mph N/A   Clear
5:35 AM 75.2 °F 15.8 °F 11% 29.84 in 10.0 mi NNW 18.4 mph 26.5 mph N/A   Clear
5:55 AM 75.2 °F 12.2 °F 9% 29.86 in 10.0 mi North 18.4 mph 32.2 mph N/A   Clear
6:15 AM 75.2 °F 10.4 °F 8% 29.88 in 10.0 mi North 20.7 mph 34.5 mph N/A   Clear
6:35 AM 73.4 °F 12.2 °F 10% 29.89 in 10.0 mi North 27.6 mph 33.4 mph N/A   Clear
7:15 AM 73.4 °F 10.4 °F 9% 29.91 in 10.0 mi North 31.1 mph 46.0 mph N/A   Clear
7:35 AM 75.2 °F 8.6 °F 8% 29.92 in 10.0 mi North 32.2 mph 48.3 mph N/A   Clear
7:55 AM 75.2 °F 8.6 °F 8% 29.93 in 10.0 mi North 31.1 mph 49.5 mph N/A   Clear
8:15 AM 75.2 °F 8.6 °F 8% 29.93 in 10.0 mi North 35.7 mph 44.9 mph N/A   Clear
8:35 AM 75.2 °F 8.6 °F 8% 29.94 in 10.0 mi North 36.8 mph 43.7 mph N/A   Clear
9:15 AM 75.2 °F 10.4 °F 8% 29.96 in 10.0 mi North 33.4 mph 43.7 mph N/A   Clear
9:35 AM 77.0 °F 14.0 °F 9% 29.97 in 10.0 mi North 28.8 mph 35.7 mph N/A   Clear
9:55 AM 77.0 °F 15.8 °F 10% 29.99 in 10.0 mi North 28.8 mph 41.4 mph N/A   Clear
10:15 AM 77.0 °F 14.0 °F 9% 30.00 in 10.0 mi North 31.1 mph 40.3 mph N/A   Clear
10:35 AM 77.0 °F 14.0 °F 9% 30.01 in 10.0 mi NNW 29.9 mph 42.6 mph N/A   Clear
10:55 AM 77.0 °F 14.0 °F 9% 30.02 in 10.0 mi North 26.5 mph 38.0 mph N/A   Clear
11:15 AM 78.8 °F 14.0 °F 9% 30.00 in 10.0 mi North 33.4 mph 41.4 mph N/A   Clear
11:35 AM 78.8 °F 14.0 °F 9% 30.01 in 10.0 mi North 29.9 mph 38.0 mph N/A   Clear
11:55 AM 80.6 °F 12.2 °F 8% 30.00 in 10.0 mi NNW 28.8 mph 36.8 mph N/A   Clear
12:15 PM 80.6 °F 10.4 °F 7% 30.00 in 10.0 mi North 34.5 mph 42.6 mph N/A   Clear
12:35 PM 80.6 °F 10.4 °F 7% 30.00 in 10.0 mi North 36.8 mph 43.7 mph N/A   Clear
12:55 PM 82.4 °F 10.4 °F 7% 30.00 in 10.0 mi NNW 29.9 mph 40.3 mph N/A   Clear
1:15 PM 82.4 °F 8.6 °F 6% 30.00 in 10.0 mi North 31.1 mph 35.7 mph N/A   Clear
1:35 PM 82.4 °F 10.4 °F 7% 29.99 in 10.0 mi North 28.8 mph 41.4 mph N/A   Clear
1:55 PM 84.2 °F 8.6 °F 6% 29.99 in 10.0 mi NNW 27.6 mph 40.3 mph N/A   Clear
2:15 PM 84.2 °F 8.6 °F 6% 29.98 in 10.0 mi NNW 31.1 mph 41.4 mph N/A   Clear
2:35 PM 84.2 °F 10.4 °F 6% 29.98 in 10.0 mi NNW 32.2 mph 39.1 mph N/A   Clear
2:55 PM 84.2 °F 6.8 °F 5% 29.98 in 10.0 mi NNW 32.2 mph 40.3 mph N/A   Clear
3:15 PM 84.2 °F 6.8 °F 5% 29.98 in 10.0 mi NNW 28.8 mph 38.0 mph N/A   Clear
3:35 PM 84.2 °F 8.6 °F 6% 29.98 in 10.0 mi NNW 27.6 mph 35.7 mph N/A   Clear
3:55 PM 86.0 °F 1.4 °F 4% 29.98 in 10.0 mi NNW 31.1 mph 41.4 mph N/A   Clear
4:15 PM 84.2 °F 10.4 °F 6% 29.98 in 10.0 mi NNW 29.9 mph 41.4 mph N/A   Clear
4:35 PM 84.2 °F 10.4 °F 6% 29.99 in 10.0 mi NNW 27.6 mph 36.8 mph N/A   Clear
4:55 PM 84.2 °F 5.0 °F 5% 29.99 in 10.0 mi North 27.6 mph 38.0 mph N/A   Clear
5:15 PM 86.0 °F -0.4 °F 4% 30.00 in 10.0 mi North 26.5 mph 35.7 mph N/A   Clear
5:35 PM 84.2 °F 5.0 °F 5% 30.00 in 10.0 mi North 20.7 mph 34.5 mph N/A   Clear
5:55 PM 84.2 °F 1.4 °F 4% 29.99 in 10.0 mi North 31.1 mph 38.0 mph N/A   Clear
6:15 PM 84.2 °F 1.4 °F 4% 30.01 in 10.0 mi North 19.6 mph 33.4 mph N/A   Clear
6:35 PM 84.2 °F 3.2 °F 5% 30.01 in 10.0 mi North 24.2 mph 31.1 mph N/A   Clear
6:55 PM 82.4 °F 5.0 °F 5% 30.01 in 10.0 mi NNE 24.2 mph 35.7 mph N/A   Clear
7:15 PM 82.4 °F 3.2 °F 5% 30.01 in 10.0 mi North 24.2 mph 31.1 mph N/A   Clear
7:35 PM 80.6 °F 1.4 °F 5% 30.02 in 10.0 mi North 23.0 mph 29.9 mph N/A   Clear
7:55 PM 80.6 °F 3.2 °F 5% 30.03 in 10.0 mi North 26.5 mph 35.7 mph N/A   Clear
8:15 PM 80.6 °F 3.2 °F 5% 30.03 in 10.0 mi North 26.5 mph 35.7 mph N/A   Clear
8:35 PM 78.8 °F 5.0 °F 6% 30.05 in 10.0 mi North 21.9 mph 33.4 mph N/A   Clear
8:55 PM 77.0 °F 6.8 °F 7% 30.06 in 10.0 mi North 21.9 mph 32.2 mph N/A   Clear
9:15 PM 77.0 °F 10.4 °F 8% 30.07 in 10.0 mi North 23.0 mph 29.9 mph N/A   Clear
9:35 PM 77.0 °F 8.6 °F 7% 30.10 in 10.0 mi North 23.0 mph 34.5 mph N/A   Clear
9:55 PM 75.2 °F 10.4 °F 8% 30.11 in 10.0 mi North 23.0 mph 31.1 mph N/A   Clear
10:15 PM 75.2 °F 10.4 °F 8% 30.12 in 10.0 mi North 24.2 mph 28.8 mph N/A   Clear
10:35 PM 73.4 °F 8.6 °F 8% 30.13 in 10.0 mi North 26.5 mph 32.2 mph N/A   Clear
10:55 PM 73.4 °F 8.6 °F 8% 30.14 in 10.0 mi North 24.2 mph 28.8 mph N/A   Clear
11:15 PM 71.6 °F 10.4 °F 9% 30.14 in 10.0 mi North 26.5 mph 34.5 mph N/A   Clear
11:35 PM 71.6 °F 14.0 °F 11% 30.15 in 10.0 mi North 28.8 mph 39.1 mph N/A   Clear
11:55 PM 71.6 °F 14.0 °F 11% 30.17 in 10.0 mi North 26.5 mph 39.1 mph N/A   Clear